Location: Baix
(44.7118°N, 4.7648°E)
Time: 13:53:46
(UTC+00:00)

Explorer 11/Cluster Stage 4 - Pass Details

Date: 30 November 2020
Orbit: 467 x 1258 km, 28.8° (Epoch: 14 January)

Event Time Altitude Azimuth Distance (km) Brightness Sun altitude
Rises 22:47:55 0° 244° (WSW) 3,711 - -65.5°
Reaches altitude 10° 22:51:57 10° 224° (SW) 2,579 - -65.8°
Maximum altitude 22:55:21 15° 190° (S) 2,061 - -66.0°
Drops below altitude 10° 22:58:25 10° 155° (SSE) 2,259 - -66.2°
Sets 23:01:35 0° 132° (SE) 3,016 - -66.4°
